Weather History for KMWA - March, 2013

Change the Weather History Date:

Sunday, March 10, 2013

  Actual Average Record
Temperature  
Mean Temperature 58 °F -  
Max Temperature 66 °F 52 °F 78 °F (1974)
Min Temperature 50 °F 30 °F 15 °F (1984)
Degree Days  
Heating Degree Days 7    
Growing Degree Days 8 (Base 50)    
Moisture  
Dew Point 44 °F    
Average Humidity 68    
Maximum Humidity 100    
Minimum Humidity 36    
Precipitation  
Precipitation 0.01 in - - ()
Sea Level Pressure  
Sea Level Pressure 29.81 in    
Wind  
Wind Speed 16 mph (South)    
Max Wind Speed 26 mph    
Max Gust Speed 41 mph    
Visibility 11 miles    
Events Rain    
Averages and records for this station are not official NWS values.
T = Trace of Precipitation, MM = Missing Value Source: NWS Daily Summary

Daily Weather History Graph

Daily Weather History Graph

Search for Another Location

Airport or City:

Trip Planner

Search our weather history database for the weather conditions in past years. The results will help you decide how hot, cold, wet, or windy it might be!

Date:

Astronomy

Mar. 10, 2013 Rise Set
Actual Time 7:14 AM CDT 6:58 PM CDT
Civil Twilight 6:48 AM CDT 7:24 PM CDT
Nautical Twilight 6:17 AM CDT 7:55 PM CDT
Astronomical Twilight 5:47 AM CDT 8:25 PM CDT
Moon 6:13 AM CDT (3/10) 6:06 PM CDT (3/10)
Length of Visible Light 12h 36m
Length of Day
11h 44m
Waning Crescent, 2% of the Moon is Illuminated
Mar 10
Waning Crescent
Mar 11
New
Mar 19
First Quarter
Mar 27
Full
Apr 2
Last Quarter

Hourly Weather History & Observations

Time (CDT) Temp. Dew Point Humidity Pressure Visibility Wind Dir Wind Speed Gust Speed Precip Events Conditions
12:15 AM 59.0 °F 32.0 °F 36% 29.91 in 10.0 mi South 16.1 mph - N/A   Scattered Clouds
12:35 AM 59.0 °F 32.0 °F 36% 29.90 in 10.0 mi South 19.6 mph 25.3 mph N/A   Overcast
12:55 AM 59.0 °F 33.8 °F 39% 29.90 in 10.0 mi South 19.6 mph 25.3 mph N/A   Overcast
1:15 AM 60.8 °F 33.8 °F 36% 29.89 in 10.0 mi South 21.9 mph 28.8 mph N/A   Mostly Cloudy
1:35 AM 60.8 °F 33.8 °F 36% 29.89 in 10.0 mi South 19.6 mph 27.6 mph N/A   Scattered Clouds
1:55 AM 60.8 °F 35.6 °F 39% 29.89 in 10.0 mi South 20.7 mph 31.1 mph N/A   Scattered Clouds
3:15 AM 60.8 °F 35.6 °F 39% 29.87 in 10.0 mi South 18.4 mph 26.5 mph N/A   Mostly Cloudy
3:35 AM 59.0 °F 35.6 °F 42% 29.86 in 10.0 mi South 20.7 mph 27.6 mph N/A   Scattered Clouds
3:55 AM 59.0 °F 35.6 °F 42% 29.86 in 10.0 mi South 20.7 mph 27.6 mph N/A   Clear
4:15 AM 59.0 °F 35.6 °F 42% 29.86 in 10.0 mi South 17.3 mph 24.2 mph N/A   Clear
4:35 AM 59.0 °F 37.4 °F 45% 29.86 in 10.0 mi South 20.7 mph 25.3 mph N/A   Clear
4:55 AM 59.0 °F 37.4 °F 45% 29.87 in 10.0 mi South 18.4 mph 24.2 mph N/A   Clear
5:15 AM 59.0 °F 39.2 °F 48% 29.86 in 10.0 mi South 19.6 mph 24.2 mph N/A   Clear
5:35 AM 59.0 °F 39.2 °F 48% 29.85 in 10.0 mi South 15.0 mph 21.9 mph N/A   Clear
5:55 AM 59.0 °F 41.0 °F 51% 29.86 in 10.0 mi South 16.1 mph - N/A   Clear
6:15 AM 59.0 °F 41.0 °F 51% 29.86 in 10.0 mi South 12.7 mph 21.9 mph N/A   Clear
6:35 AM 59.0 °F 41.0 °F 51% 29.86 in 10.0 mi South 17.3 mph 23.0 mph N/A   Clear
6:55 AM 59.0 °F 42.8 °F 55% 29.87 in 20.0 mi South 11.5 mph - N/A   Mostly Cloudy
7:55 AM 60.8 °F 44.6 °F 55% 29.86 in 20.0 mi South 13.8 mph 20.7 mph N/A   Overcast
8:55 AM 62.6 °F 44.6 °F 52% 29.83 in 20.0 mi South 13.8 mph 24.2 mph N/A   Mostly Cloudy
9:55 AM 62.6 °F 44.6 °F 52% 29.82 in 20.0 mi South 17.3 mph 27.6 mph N/A   Mostly Cloudy
10:55 AM 64.4 °F 46.4 °F 52% 29.81 in 20.0 mi South 26.5 mph 41.4 mph N/A   Mostly Cloudy
11:55 AM 64.4 °F 46.4 °F 52% 29.78 in 20.0 mi South 20.7 mph 28.8 mph N/A   Mostly Cloudy
12:53 PM 64.4 °F 46.4 °F 52% 29.75 in 15.0 mi South 16.1 mph 32.2 mph N/A   Overcast
1:54 PM 66.2 °F 46.4 °F 49% 29.73 in 15.0 mi South 17.3 mph 34.5 mph N/A   Overcast
2:53 PM 62.6 °F 51.8 °F 68% 29.71 in 12.0 mi South 20.7 mph 40.3 mph N/A Rain Light Rain
3:54 PM 53.6 °F 51.8 °F 94% 29.77 in 4.0 mi NW 15.0 mph - N/A Rain Light Rain
4:52 PM 51.8 °F 51.8 °F 100% 29.78 in 5.0 mi WNW 9.2 mph - N/A Rain Light Rain
5:51 PM 51.8 °F 51.8 °F 100% 29.75 in 10.0 mi SE 8.1 mph - N/A Rain Light Rain
6:54 PM 51.8 °F 51.8 °F 100% 29.76 in 15.0 mi SE 9.2 mph - N/A   Overcast
8:15 PM 50.0 °F 50.0 °F 100% 29.78 in 10.0 mi SSE 5.8 mph - N/A   Overcast
8:35 PM 50.0 °F 50.0 °F 100% 29.77 in 10.0 mi SSE 5.8 mph - N/A   Mostly Cloudy
8:55 PM 50.0 °F 50.0 °F 100% 29.78 in 10.0 mi WSW 4.6 mph - N/A   Mostly Cloudy
9:15 PM 50.0 °F 50.0 °F 100% 29.78 in 10.0 mi South 5.8 mph - N/A   Mostly Cloudy
9:35 PM 50.0 °F 50.0 °F 100% 29.77 in 10.0 mi South 5.8 mph - N/A   Unknown
9:55 PM 50.0 °F 50.0 °F 100% 29.77 in 10.0 mi SSE 9.2 mph - N/A   Clear
10:15 PM 50.0 °F 48.2 °F 94% 29.77 in 10.0 mi South 8.1 mph - N/A   Clear
10:35 PM 50.0 °F 48.2 °F 94% 29.77 in 10.0 mi South 6.9 mph - N/A   Scattered Clouds
10:55 PM 50.0 °F 48.2 °F 94% 29.77 in 10.0 mi SSW 5.8 mph - N/A   Mostly Cloudy
11:15 PM 50.0 °F 50.0 °F 100% 29.77 in 10.0 mi SSW 8.1 mph - N/A   Overcast
11:35 PM 50.0 °F 50.0 °F 100% 29.78 in 10.0 mi SSW 8.1 mph - N/A   Overcast
11:55 PM 51.8 °F 50.0 °F 94% 29.77 in 10.0 mi South 11.5 mph - 0.01 in   Overcast
12:15 AM 51.8 °F 50.0 °F 94% 29.76 in 10.0 mi South 11.5 mph - N/A   Overcast
12:35 AM 51.8 °F 50.0 °F 94% 29.76 in 10.0 mi South 10.4 mph - N/A   Overcast
12:55 AM 51.8 °F 50.0 °F 94% 29.76 in 3.0 mi SW 6.9 mph - N/A Rain Light Rain